Location: Chisholm
(54.9102°N, 114.1701°W)
Time: 11:00:46
(UTC+00:00)

N. Korean satellite - Pass Details

Date: 05 December 2021
Orbit: 447 x 491 km, 97.3° (Epoch: 23 January)

Event Time Altitude Azimuth Distance (km) Brightness Sun altitude
Rises 00:52:52 0° 203° (SSW) 2,524 10.9 -13.4°
Reaches altitude 10° 00:55:24 10° 223° (SW) 1,641 10.3 -13.8°
Maximum altitude 00:57:56 18° 269° (W) 1,205 9.6 -14.1°
Drops below altitude 10° 01:00:27 10° 315° (NW) 1,632 9.6 -14.4°
Sets 01:02:58 0° 334° (NNW) 2,504 10.3 -14.8°
